sat.trackr.live / text

‹ back to catalog

STARLINK-35596

NORAD 66086 · 2025-236A

PAYLOAD ACTIVE UNKNOWN

§ Identity

Operator
Country
US
Launch date
2025-10-19
Launch site
AFWTR
Launch vehicle
Mass (kg)
RCS (m²)

Purposes: comms

External: N2YO · Heavens-Above · Gunter

§ Orbital elements

Epoch: 2026-09-20T07:27:21.114720Z

Period
93.85 min
Inclination
53.1590°
Eccentricity
0.0001086
Mean motion
15.34383478 rev/d
Perigee alt
462.0 km
Apogee alt
463.5 km
Semi-major
6,840.9 km
B*
2.3385e-4
RAAN
278.3462°
Arg perigee
82.1783°
Mean anomaly
277.9343°
Rev number
5,276

§ Raw data

STARLINK-355961 66086U 25236A   26263.31066105  .00007529  00000+0  23385-3 0  99912 66086  53.1590 278.3462 0001086  82.1783 277.9343 15.34383478 52768

JSON: /api/v1/satellites/66086 · /tle

For live sub-satellite position, see the globe view (requires WebGL).

§ Visibility from observer

Set your observer location to see the next 7 days of passes ≥ 10°. The values pass through the URL so the page stays shareable.

No JS? Fill the form by hand. The geolocation button needs JavaScript.